Regional Weather Roundup
Issued by NWS

Home | Current Version | Previous Version | Text Only | Print | Product List | Glossary Off
Versions: 1 2 3 4 5 6 7 8 9 10 11 12 13 14 15 16 17 18 19 20 21 22 23 24 25 26 27 28 29 30 31 32 33 34 35 36 37 38 39 40 41 42 43 44 45 46 47 48 49 50

000
ASUS45 KBOI 250010
RWRID

IDAHO REGIONAL WEATHER ROUNDUP
NATIONAL WEATHER SERVICE BOISE ID
600 PM MDT SAT SEP 24 2016

NOTE: "FAIR" INDICATES FEW OR NO CLOUDS BELOW 12000 FEET
WITH NO SIGNIFICANT WEATHER AND/OR OBSTRUCTIONS TO VISIBILITY

IDZ012-014-250100-
SOUTHWEST IDAHO


CITY           SKY/WX    TMP DP  RH WIND       PRES   REMARKS
BOISE          SUNNY     67  32  27 NW15G21   30.29R
CALDWELL       SUNNY     69  31  24 W10       30.29S
MOUNTAIN HOME  SUNNY     67  29  23 NW23      30.27R
$$

IDZ016-017-250100-
SOUTHCENTRAL IDAHO


CITY           SKY/WX    TMP DP  RH WIND       PRES   REMARKS
BURLEY         SUNNY     58  36  43 W13G21    30.28R
JEROME         SUNNY     61  31  32 W21G28    30.27S
TWIN FALLS     SUNNY     60  34  37 W16       30.28S
$$

IDZ019>023-250100-
SOUTHEAST IDAHO


CITY           SKY/WX    TMP DP  RH WIND       PRES   REMARKS
IDAHO FALLS    MOSUNNY   61  41  47 SW20      30.25R
POCATELLO      MOSUNNY   60  39  45 SW18      30.28R
REXBURG        MOSUNNY   60  42  51 S7        30.25R
$$

IDZ006-010-011-018-031-032-250100-
CENTRAL IDAHO MOUNTAINS


CITY           SKY/WX    TMP DP  RH WIND       PRES   REMARKS
MCCALL         SUNNY     59  30  33 W13       30.32R
HAILEY         SUNNY     63  41  45 SE6       30.27R
STANLEY          N/A     60  22  23 N12       30.32R
SALMON         SUNNY     61  34  36 NW8       30.28R
CHALLIS        SUNNY     61  28  28 NE12G18   30.27R
$$

IDZ002-004-006-007-026-250100-
NORTHERN IDAHO


CITY           SKY/WX    TMP DP  RH WIND       PRES   REMARKS
LEWISTON       SUNNY     70  37  29 NW5       30.29F
LOWELL           N/A     59  47  64 CALM      30.31S
COEUR D`ALENE  NOT AVBL
MULLAN PASS    SUNNY     43  34  70 VRB5      30.33F
$$



USA.gov is the U.S. government's official web portal to all federal, state and local government web resources and services.